sat.trackr.live / text

‹ back to catalog

STARLINK-36152

NORAD 66968 · 2025-288K

PAYLOAD ACTIVE UNKNOWN

§ Identity

Operator
Country
US
Launch date
2025-12-08
Launch site
AFETR
Launch vehicle
Mass (kg)
RCS (m²)

Purposes: comms

External: N2YO · Heavens-Above · Gunter

§ Orbital elements

Epoch: 2026-05-25T04:25:40.063008Z

Period
94.27 min
Inclination
43.0019°
Eccentricity
0.0001444
Mean motion
15.27585523 rev/d
Perigee alt
482.0 km
Apogee alt
484.0 km
Semi-major
6,861.2 km
B*
7.1143e-4
RAAN
311.6813°
Arg perigee
271.0742°
Mean anomaly
88.9944°
Rev number
2,698

§ Raw data

STARLINK-361521 66968U 25288K   26145.18449147  .00019370  00000+0  71143-3 0  99942 66968  43.0019 311.6813 0001444 271.0742  88.9944 15.27585523 26983

JSON: /api/v1/satellites/66968 · /tle

For live sub-satellite position, see the globe view (requires WebGL).

§ Visibility from observer

Set your observer location to see the next 7 days of passes ≥ 10°. The values pass through the URL so the page stays shareable.

No JS? Fill the form by hand. The geolocation button needs JavaScript.